Flag for Germany Weather past 2 weeks in Ibbenbüren, North Rhine-Westphalia, Germany

Now
63 °F

Thundershowers. Partly cloudy.


Feels Like: 63 °F
Forecast: 67 / 82 °F
Wind: 5 mph from Northeast

Location: Muenster / Osnabrueck

Current Time: Aug 30, 2015 at 5:54:37 AM

Latest Report: Aug 30, 2015 at 5:20 AM


Visibility: N/A

Pressure: 30.04 "Hg

Humidity: 88%

Dew point: 59 °F

Location of IbbenbürenLocation

Historic Weather in Ibbenbüren — Graph

°F

Ibbenbüren temperature yesterday

Maximum temperature yesterday: 75 °F (at 4:50 PM)
Minimum temperature yesterday: 50 °F (at 3:20 AM)
Average temperature yesterday: 62 °F

Past Weeks' High & Low Weather Summary

 TemperatureHumidityPressure
High79 °F (Aug 26, 3:20 PM)100% (Aug 15, 4:20 AM)30.27 "Hg (Aug 15, 4:20 AM)
Low50 °F (Aug 19, 6:20 AM)34% (Aug 23, 2:20 PM)29.53 "Hg (Aug 24, 5:20 PM)
Average64 °F79%29.95 "Hg
* Reported Aug 15 4:20 AM — Aug 30 4:50 AM, Ibbenbüren, Weather by CustomWeather, © 2015

Note: Actual official high and low records may vary slightly from our data, if they occured in-between our weather recording intervals... More about our weather records

Advertising

Ibbenbüren weather history for previous 24 hours

 ConditionsComfort  
Time TempWeatherWind HumidityBarometerVisibility
4:50 AM
Sun, Aug 30
63 °FPassing clouds.5 mph88%30.07 "HgN/A
4:20 AM61 °FPassing clouds.3 mph94%30.07 "HgN/A
3:50 AM61 °FPassing clouds.2 mph88%30.07 "HgN/A
3:20 AM61 °FPassing clouds.3 mph88%30.07 "HgN/A
2:50 AM61 °FPassing clouds.2 mph88%30.09 "HgN/A
2:20 AM59 °FPassing clouds.1 mph94%30.09 "HgN/A
1:50 AM59 °FClear.1 mph94%30.09 "Hg10 mi
1:20 AM61 °FClear.1 mph88%30.09 "Hg10 mi
12:50 AM61 °FClear.2 mph88%30.09 "Hg10 mi
12:20 AM63 °FPassing clouds.3 mph83%30.09 "HgN/A
11:20 PM
Sat, Aug 29
63 °FClear.2 mph83%30.12 "Hg10 mi
10:50 PM63 °FPassing clouds.3 mph88%30.12 "HgN/A
10:20 PM64 °FPassing clouds.2 mph83%30.12 "HgN/A
9:50 PM64 °FPassing clouds.3 mph83%30.12 "HgN/A
9:20 PM64 °FPassing clouds.2 mph83%30.12 "HgN/A
8:50 PM66 °FPassing clouds.3 mph78%30.12 "HgN/A
8:20 PM68 °FScattered clouds.3 mph73%30.12 "HgN/A
7:50 PM70 °FScattered clouds.2 mph69%30.12 "HgN/A
7:20 PM73 °FSunny.1 mph61%30.12 "Hg10 mi
6:50 PM73 °FSunny.2 mph57%30.12 "Hg10 mi
6:20 PM73 °FPassing clouds.2 mph57%30.12 "HgN/A
5:50 PM75 °FPassing clouds.3 mph50%30.15 "HgN/A
5:20 PM73 °FPassing clouds.3 mph53%30.15 "HgN/A
4:50 PM75 °FPassing clouds.2 mph47%30.15 "HgN/A
4:20 PM73 °FScattered clouds.3 mph53%30.15 "HgN/A
3:50 PM73 °FScattered clouds.5 mph53%30.15 "HgN/A
3:20 PM73 °FScattered clouds.5 mph53%30.18 "HgN/A
2:50 PM73 °FScattered clouds.2 mph50%30.18 "HgN/A
2:20 PM72 °FScattered clouds.5 mph57%30.18 "HgN/A
1:50 PM72 °FScattered clouds.5 mph57%30.18 "HgN/A
1:20 PM72 °FScattered clouds.5 mph53%30.21 "HgN/A
12:50 PM70 °FScattered clouds.6 mph57%30.21 "HgN/A
11:50 AM68 °FPassing clouds.3 mph69%30.21 "HgN/A
11:20 AM68 °FPassing clouds.5 mph69%30.21 "HgN/A
10:50 AM66 °FPassing clouds.3 mph73%30.21 "HgN/A
9:20 AM59 °FPassing clouds.5 mph88%30.21 "HgN/A
8:50 AM57 °FClear.3 mph94%30.24 "Hg5 mi
7:50 AM54 °FFog.2 mph94%30.21 "Hg3 mi
7:20 AM52 °FFog.2 mph100%30.21 "Hg3 mi
6:50 AM50 °FCool.2 mph100%30.21 "Hg4 mi
6:20 AM50 °FFog.1 mph100%30.21 "Hg4 mi
5:50 AM52 °FFog.3 mph100%30.18 "Hg5 mi
5:20 AM52 °FFog.5 mph100%30.18 "HgN/A
Weather by CustomWeather, © 2015

See weather overviewHow to use our weather pages